DECAYED

OBJECT B, 43663 (Decayed)

Orbit data source: Space-Track

You're viewing an Uncataloged Satellite

Recently launched and/or uncataloged satellites may have evolving metadata. Metadata may include but not limited to: Owner, Maufacturer, Bus, Motor, and Mission.

OBJECT B, 43663 was a satellite owned by Tsinghua (CN) in LEO that was launched on Mon, 29 Oct 2018 UTC via a CHANG ZHENG 2C launch vehicle from the Jiuquan Satellite Launch Center, China (JSC). Unknown objects in Earth's orbit typically refer to objects detected orbiting the Earth but have not yet been identified or cataloged. These objects could be anything from previously untracked satellites, spent rocket stages, debris from satellite collisions, or even natural meteoroids temporarily captured by Earth's gravity. This object's orbit decayed before it could be identified.

Not visible in the next 10 days
Identifier
43663, 2018-083B
Orbit
Decayed
Last TLE update
9 months ago
Origin
Manufacturer
Changsha Tianyi
Mission
Decayed Commercial Astronomy
Bus & Motor
CUBESAT 6U, Unknown motor
Mass
8 kg wet, 8 kg dry
Launch date (UTC)
2018-10-29 (7 years ago)
Launch vehicle
CHANG ZHENG 2C
Launch site
Jiuquan Satellite Launch Center, China (JSC)
Object type
Unknown
Shape & HBR
Box, 0.3 m
Radar Cross Section
0.080 m², Medium (>0.1 m² and < 1m²)

Expand to show TLE details & history

TLE from 9 months ago
0 OBJECT B
1 43663U 18083B   24264.23015267  .08082201  24267-5  17430-2 0  9990
2 43663  97.2724 301.8490 0010388 253.7498 106.2654 16.30552179328149
Epoch: 2024-09-20T05:31Z
TLE epoch observation values (Epoch: 2024-09-20T05:31:25.19Z)
Latitude
-0.00006°
Longitude
-140.61069°
Altitude
196.217 km
Speed
7.787 km/s
True Right ascension
20h 07m 23s
True Declination
0° 00' 00"
Sunlit
Object was in full shadow at epoch
Visualization orbit readout
Visualization observer readout
Orbital elements
Apogee altitude
194.691 km
Perigee altitude
181.05 km
Semi-major axis
6,566.007 km
Eccentricity
0.00104
Inclination
97.2724°
RAAN
301.849°
Arg. of periapsis
253.7498°
True anomaly
Unknown
Mean anomaly
106.2654°
Eccentric anomaly
Unknown
Mean motion
4.07935 °/min
Orbital period
88.25 mins
BSTAR
0.001743
Loading maneuver chart data...
Loading SW <> Apogee altitude chart data...
Loading historical data...
Loading historical data...
Loading historical data...
Loading historical data...
Loading historical data...
Loading historical data...
Loading historical data...

OBJECT B Visibility

Observer location: undefined°, undefined°

This satellite is decayed
Span
Click to sort rows by Start time (UTC) header in descending order
Start Az.
Max El. time (UTC)
Max El. Az.
Max El.
End time (UTC)
End Az.
|